sat.trackr.live / text

‹ back to catalog

STARLINK-31362

NORAD 58935 · 2024-027E

PAYLOAD ACTIVE UNKNOWN

§ Identity

Operator
Country
US
Launch date
2024-02-10
Launch site
AFWTR
Launch vehicle
Mass (kg)
RCS (m²)

Purposes: comms

External: N2YO · Heavens-Above · Gunter

§ Orbital elements

Epoch: 2026-05-25T04:05:20.054400Z

Period
94.11 min
Inclination
53.1613°
Eccentricity
0.0001192
Mean motion
15.30199376 rev/d
Perigee alt
474.4 km
Apogee alt
476.0 km
Semi-major
6,853.4 km
B*
2.4795e-5
RAAN
314.6781°
Arg perigee
94.0972°
Mean anomaly
266.0165°
Rev number
12,903

§ Raw data

STARLINK-313621 58935U 24027E   26145.17037100  .00000375  00000+0  24795-4 0  99972 58935  53.1613 314.6781 0001192  94.0972 266.0165 15.30199376129030

JSON: /api/v1/satellites/58935 · /tle

For live sub-satellite position, see the globe view (requires WebGL).

§ Visibility from observer

Set your observer location to see the next 7 days of passes ≥ 10°. The values pass through the URL so the page stays shareable.

No JS? Fill the form by hand. The geolocation button needs JavaScript.